DW0756 Weather Reports


Display with metric or nautical units.
time (UTC)temp
F
wind
direction
speed
MPH
gust
MPH
rain 1hr
in
rain 24hr
in
rain mn
in
humidity
%
barometer
mb
20260510130604 58 283 1.0 3.0 0.00 0.24 0.00
20260510125604 57 274 1.0 3.0 0.00 0.24 0.00
20260510124604 56 342 1.0 3.0 0.00 0.24 0.00
20260510121104 55 4 0.0 1.0 0.00 0.24 0.00
20260510120604 54 4 0.0 0.0 0.00 0.24 0.00
20260510120104 54 4 0.0 0.0 0.00 0.24 0.00
20260510115604 53 4 0.0 1.0 0.00 0.24 0.00
20260510115104 53 4 1.0 1.0 0.00 0.25 0.00
20260510114104 53 4 0.0 1.0 0.00 0.25 0.00
20260510113604 53 4 0.0 2.0 0.00 0.25 0.00
20260510112604 53 4 1.0 2.0 0.00 0.25 0.00
20260510112104 53 0 1.0 2.0 0.00 0.25 0.00
20260510105104 51 46 1.0 2.0 0.00 0.25 0.00
20260510104604 51 47 0.0 0.0 0.00 0.25 0.00
20260510104104 50 47 0.0 0.0 0.00 0.25 0.00
20260510102103 50 46 0.0 1.0 0.00 0.25 0.00
20260510101104 50 47 0.0 2.0 0.00 0.25 0.00
20260510095603 49 21 0.0 2.0 0.00 0.25 0.00
20260510095104 49 330 0.0 2.0 0.00 0.25 0.00
20260510092603 49 290 0.0 2.0 0.00 0.25 0.00
20260510092103 49 290 1.0 2.0 0.00 0.25 0.00
20260510091604 49 191 1.0 3.0 0.00 0.25 0.00
20260510090604 49 190 0.0 3.0 0.00 0.25 0.00
20260510085104 48 180 2.0 3.0 0.00 0.25 0.00
20260510082104 49 176 1.0 2.0 0.00 0.25 0.00
20260510081604 49 249 0.0 1.0 0.00 0.25 0.00
20260510075604 49 191 1.0 2.0 0.00 0.25 0.00
20260510075104 49 206 1.0 2.0 0.00 0.25 0.00
20260510074604 49 172 1.0 2.0 0.00 0.25 0.00
20260510073604 48 255 1.0 2.0 0.00 0.26 0.00
20260510072604 48 293 0.0 2.0 0.00 0.26 0.00
20260510070604 47 351 0.0 2.0 0.00 0.28 0.00
20260510065104 46 314 0.0 1.0 0.00 0.30 0.00
20260510064604 46 314 0.0 2.0 0.00 0.30 0.00
20260510063604 46 261 0.0 0.0 0.00 0.30 0.00
20260510062603 46 261 0.0 0.0 0.00 0.30 0.00
20260510060604 45 261 0.0 1.0 0.00 0.31 0.00
20260510054604 44 262 0.0 1.0 0.00 0.31 0.00
20260510054104 44 262 0.0 1.0 0.00 0.31 0.00
20260510050603 44 261 0.0 0.0 0.00 0.31 0.00
20260510050104 44 262 0.0 0.0 0.00 0.31 0.00
20260510045604 44 262 0.0 1.0 0.00 0.31 0.00
20260510044604 44 261 0.0 0.0 0.00 0.31 0.00
20260510044104 43 262 0.0 0.0 0.00 0.31 0.00
20260510042604 44 261 0.0 0.0 0.00 0.31 0.00
20260510041603 44 261 0.0 0.0 0.00 0.31 0.00
20260510040603 45 262 0.0 0.0 0.00 0.31 0.00
20260510040104 45 262 0.0 0.0 0.00 0.31 0.00
20260510034604 45 262 0.0 1.0 0.00 0.31 0.31
20260510034104 46 261 0.0 0.0 0.00 0.31 0.31
20260510033604 45 262 0.0 0.0 0.00 0.31 0.31
20260510033104 45 262 0.0 0.0 0.00 0.31 0.31
20260510030604 46 262 0.0 1.0 0.00 0.31 0.31
20260510030104 46 261 0.0 1.0 0.00 0.31 0.31
20260510022605 47 262 0.0 2.0 0.00 0.31 0.31
20260510021104 47 261 0.0 0.0 0.00 0.31 0.31
20260510020105 48 261 0.0 2.0 0.00 0.31 0.31
20260510015104 48 261 0.0 2.0 0.00 0.31 0.31
20260510014604 48 261 0.0 1.0 0.00 0.31 0.31
20260510013604 49 261 0.0 2.0 0.00 0.31 0.31
20260510011104 50 269 0.0 2.0 0.00 0.31 0.31
20260510010604 50 264 0.0 2.0 0.00 0.31 0.31
20260510010104 50 264 0.0 2.0 0.00 0.31 0.31
20260510005604 51 264 1.0 2.0 0.00 0.31 0.31
20260510004104 51 203 1.0 5.0 0.00 0.31 0.31
20260510003604 52 181 2.0 5.0 0.00 0.31 0.31
20260510002104 52 150 2.0 5.0 0.00 0.31 0.31
20260510001604 53 160 3.0 9.0 0.00 0.31 0.31
20260510001104 53 210 1.0 9.0 0.00 0.31 0.31
20260510000604 53 216 2.0 7.0 0.00 0.31 0.31
20260510000105 53 158 2.0 6.0 0.00 0.31 0.31
20260509235605 53 146 2.0 5.0 0.00 0.31 0.31
20260509233604 54 179 2.0 6.0 0.00 0.38 0.31
20260509233104 55 228 3.0 7.0 0.00 0.38 0.31
20260509232604 55 204 2.0 7.0 0.00 0.38 0.31
20260509231605 56 210 2.0 6.0 0.00 0.38 0.31
20260509231104 56 210 2.0 5.0 0.00 0.38 0.31
20260509230104 57 208 2.0 3.0 0.00 0.38 0.31
20260509225604 57 165 1.0 3.0 0.00 0.38 0.31
20260509225104 57 186 1.0 3.0 0.00 0.38 0.31
20260509224604 57 206 1.0 3.0 0.00 0.38 0.31
20260509224104 56 211 1.0 3.0 0.00 0.38 0.31
20260509223104 56 231 1.0 2.0 0.00 0.38 0.31
20260509222604 56 231 1.0 3.0 0.00 0.38 0.31
20260509221104 56 185 0.0 2.0 0.01 0.38 0.31
20260509220604 56 184 1.0 3.0 0.01 0.38 0.31
20260509220104 56 155 0.0 3.0 0.01 0.38 0.31
20260509212604 57 207 0.0 1.0 0.05 0.38 0.31
20260509211604 57 207 0.0 3.0 0.05 0.37 0.30
20260509210603 56 208 1.0 3.0 0.06 0.37 0.30
20260509210104 57 215 1.0 3.0 0.06 0.37 0.30
20260509204603 56 236 1.0 3.0 0.06 0.36 0.29
20260509202604 56 277 0.0 2.0 0.05 0.33 0.26
20260509201603 56 257 0.0 1.0 0.04 0.32 0.25
20260509200604 56 296 0.0 1.0 0.04 0.31 0.24
20260509200104 56 295 0.0 2.0 0.04 0.31 0.24
20260509194604 56 242 1.0 3.0 0.06 0.30 0.23
20260509194104 56 270 0.0 3.0 0.07 0.30 0.23
20260509193104 57 297 0.0 1.0 0.07 0.29 0.22
20260509192604 57 297 0.0 2.0 0.07 0.28 0.21
20260509191604 58 300 1.0 6.0 0.07 0.28 0.21
20260509185104 58 261 1.0 6.0 0.07 0.25 0.18
20260509184104 58 328 2.0 6.0 0.06 0.23 0.16
20260509183604 58 339 1.0 6.0 0.06 0.22 0.15
20260509183104 59 293 2.0 8.0 0.06 0.22 0.15
20260509181605 59 312 1.0 7.0 0.05 0.21 0.14
20260509181105 59 342 1.0 7.0 0.04 0.20 0.13
20260509180605 58 329 0.0 7.0 0.04 0.20 0.13
20260509180105 58 308 2.0 7.0 0.04 0.20 0.13
20260509175604 58 341 1.0 3.0 0.03 0.19 0.12
20260509175104 57 330 2.0 3.0 0.02 0.18 0.11
20260509173104 59 1 1.0 3.0 0.00 0.16 0.09
20260509172605 59 61 1.0 3.0 0.00 0.16 0.09
20260509172105 60 26 1.0 3.0 0.00 0.16 0.09
20260509171604 60 55 1.0 3.0 0.00 0.16 0.09
20260509171104 61 46 2.0 2.0 0.00 0.16 0.09
20260509165105 60 7 1.0 3.0 0.01 0.16 0.09
20260509163604 60 210 1.0 3.0 0.01 0.16 0.09
20260509163104 61 171 0.0 3.0 0.01 0.16 0.09
20260509162604 61 172 1.0 3.0 0.02 0.16 0.09
20260509162104 60 145 2.0 3.0 0.02 0.16 0.09
20260509161606 60 122 1.0 3.0 0.02 0.16 0.09
20260509160604 59 112 1.0 2.0 0.02 0.16 0.09
20260509155605 58 185 0.0 1.0 0.01 0.15 0.08
20260509155104 58 185 1.0 3.0 0.01 0.15 0.08
20260509154104 58 251 0.0 2.0 0.01 0.15 0.08
20260509153604 59 261 1.0 2.0 0.01 0.15 0.08
20260509153105 58 295 0.0 1.0 0.01 0.15 0.08
20260509152605 57 295 0.0 2.0 0.00 0.14 0.07
20260509152104 57 292 0.0 2.0 0.00 0.14 0.07
20260509151104 58 235 0.0 3.0 0.00 0.14 0.07
20260509145604 59 228 1.0 2.0 0.00 0.14 0.07
20260509145104 58 58 0.0 3.0 0.00 0.14 0.07
20260509144604 59 84 1.0 3.0 0.00 0.14 0.07
20260509144105 58 78 2.0 3.0 0.00 0.14 0.07
20260509142604 59 74 0.0 3.0 0.00 0.14 0.07
20260509141104 57 149 2.0 3.0 0.00 0.14 0.07
20260509140105 58 137 1.0 2.0 0.00 0.14 0.07
20260509135604 58 217 0.0 3.0 0.00 0.14 0.07
20260509134605 57 214 1.0 3.0 0.00 0.14 0.07
20260509134104 57 209 2.0 3.0 0.00 0.14 0.07
20260509133104 55 157 1.0 3.0 0.00 0.14 0.07
20260509132604 55 128 2.0 6.0 0.00 0.14 0.07
20260509131605 54 129 2.0 5.0 0.00 0.14 0.07
20260509131104 54 136 3.0 5.0 0.00 0.14 0.07